Location: Newark
(42.7336°N, 84.5467°W)
Time: 03:11:01
(UTC+00:00)

Hubble Space Telescope - Pass Details

Date: 29 September 2020
Orbit: 536 x 540 km, 28.5° (Epoch: 21 October)

Event Time Altitude Azimuth Distance (km) Brightness Sun altitude
Exits shadow 10:20:57 - 205° (SSW) 1,886 3.2 -14.2°
Reaches altitude 10° 10:21:44 10° 195° (SSW) 1,776 3.2 -14.0°
Maximum altitude 10:22:51 11° 179° (S) 1,716 3.3 -13.8°
Drops below altitude 10° 10:23:58 10° 163° (SSE) 1,776 3.5 -13.6°
Sets 10:27:51 0° 127° (SE) 2,666 5.0 -12.9°
